Location: Tel Aviv
(32.0670°N, 34.7670°E)
Time: 04:36:53
(UTC+03:00)

Vanguard 2 - Pass Details

Date: 28 January 2022
Orbit: 552 x 2935 km, 32.9° (Epoch: 25 May)

Event Time Altitude Azimuth Distance (km) Brightness Sun altitude
Rises 02:03:26 0° 283° (WNW) 5,949 - -57.7°
Reaches altitude 10° 02:07:26 10° 276° (W) 5,201 - -56.9°
Maximum altitude 02:21:32 38° 216° (SW) 3,895 - -54.1°
Exits shadow 02:30:24 25° 173° (S) 4,583 11.3 -52.2°
Drops below altitude 10° 02:36:47 10° 156° (SSE) 5,570 11.9 -50.9°
Sets 02:41:21 0° 149° (SSE) 6,394 12.4 -49.9°
